#timestamp,LO_Frequency,Hit 
1504753215.4,286047023.4,N
1504753235.2,286047023.4,N
1504753255.1,286047021.2,N
1504753256.0,286047021.2,P
1504753275.8,286047006.6,N
1504753295.6,286047004.9,N
1504753315.5,286047006.9,N
1504753335.3,286047004.8,N
1504753355.1,286047004.2,N
1504753375.9,286047005.3,N
1504753395.7,286047006.6,N
1504753415.5,286047010.8,N
1504753435.4,286047011.9,N
1504753455.2,286047012.9,N
1504753475.0,286047013.1,N
1504753475.9,286047013.1,N
1504753495.8,286047011.8,N
1504753515.6,286047013.6,N
1504753535.4,286047013.4,N
1504753555.3,286047009.8,N
1504753575.1,286047011.1,N
1504753576.0,286047011.1,N
1504753595.8,286047011.6,N
1504753615.7,286047011.8,N
1504753635.5,286047013.1,P
1504753655.3,286047002.9,N
1504753675.2,286047002.2,N
1504753695.9,286047001.9,N
1504753715.7,286047000.2,N
1504753735.6,286046999.8,N
1504753755.4,286046999.4,N
1504753775.2,286046993.3,N
1504753795.0,286046990.3,N
1504753795.9,286046990.3,N
1504753815.8,286046988.9,N
1504753835.6,286046987.2,N
1504753855.4,286046986.8,N
1504753875.3,286046980.1,N
1504753895.1,286046980.3,N
1504753915.8,286046981.1,N
1504753935.7,286046982.2,N
1504753955.5,286046987.1,N
1504753975.3,286046982.4,N
1504753995.2,286046981.5,N
1504754015.9,286046981.6,N
1504754035.7,286046978.6,N
1504754055.6,286046979.9,N
1504754075.4,286046976.4,N
1504754095.2,286046975.6,N
1504754115.0,286046974.2,N
1504754115.9,286046974.2,N
1504754135.8,286046974.7,N
1504754155.6,286046978.6,N
1504754175.4,286046974.4,N
1504754195.3,286046971.2,N
1504754215.1,286046972.3,N
1504754235.8,286046970.3,P
1504754255.7,286046985.8,N
1504754275.5,286046988.4,N
1504754295.3,286046987.3,N
1504754315.2,286046987.3,N
1504754335.9,286046989.8,N
1504754355.7,286046990.3,N
1504754375.6,286046997.9,N
1504754395.4,286046989.9,N
1504754415.2,286046985.6,N
1504754435.1,286046983.9,N
1504754436.0,286046983.9,N
1504754455.8,286046987.8,N
1504754475.6,286046986.9,N
1504754495.5,286046991.5,N
1504754515.3,286046987.1,N
1504754535.1,286046987.6,N
1504754555.9,286046990.8,N
1504754575.7,286046988.8,N
1504754595.5,286046987.2,N
1504754615.3,286046990.6,N
1504754635.2,286046988.5,N
1504754655.0,286046993.4,N
1504754655.9,286046993.4,N
1504754675.7,286046999.2,N
1504754695.6,286046997.8,N
1504754715.4,286046995.4,N
1504754735.2,286047000.7,N
1504754755.1,286047001.8,N
1504754756.0,286047001.8,N
1504754775.8,286047006.7,N
1504754795.6,286047009.9,N
1504754815.5,286047012.0,N
1504754835.3,286047013.3,N
1504754855.1,286047015.3,N
1504754875.9,286047017.2,N
1504754895.7,286047012.9,N
1504754915.5,286047015.0,N
1504754935.3,286047014.5,N
1504754955.2,286047014.3,N
1504754975.0,286047016.6,N
1504754975.9,286047016.6,N
1504754995.7,286047017.5,N
1504755015.6,286047016.2,N
1504755035.4,286047015.9,N
1504755055.2,286047014.1,N
1504755075.1,286047013.5,N
1504755076.0,286047013.5,N
1504755095.8,286047011.9,N
1504755115.6,286047013.1,N
1504755135.5,286047011.9,N
1504755155.3,286047012.4,N
1504755175.1,286047010.9,N
1504755195.9,286047011.3,N
1504755215.7,286047009.9,N
1504755235.5,286047014.0,N
1504755255.4,286047010.4,N
1504755275.2,286047007.8,N
1504755295.0,286047010.3,N
1504755295.9,286047010.3,P
1504755315.8,286046996.8,N
1504755335.6,286047000.4,N
1504755355.4,286047001.2,N
1504755375.3,286046999.5,N
1504755395.1,286046999.4,N
1504755396.0,286046999.4,N
1504755415.8,286046996.8,N
1504755435.6,286046999.2,N
1504755455.5,286046999.8,N
1504755475.3,286046998.6,N
1504755495.1,286047002.8,N
1504755515.9,286047002.9,N
1504755535.7,286047007.4,N
1504755555.5,286047003.3,N
1504755575.4,286047002.9,N
1504755595.2,286047004.1,N
1504755615.0,286047002.3,N
1504755615.9,286047002.3,N
1504755635.8,286047001.0,N
1504755655.6,286047000.3,N
1504755675.4,286047001.0,N
1504755695.3,286047000.8,N
1504755715.1,286046995.9,N
1504755716.0,286046995.9,N
1504755735.8,286046990.4,N
1504755755.7,286046990.8,N
1504755775.5,286046985.8,P
1504755795.3,286046983.8,N
1504755815.2,286046984.7,N
1504755835.9,286046985.2,N
1504755855.7,286046984.8,N
1504755875.6,286046981.5,P
1504755895.4,286046990.9,P
1504755915.2,286046993.5,N
1504755935.1,286046991.8,N
1504755936.0,286046991.8,N
1504755955.8,286046992.3,N
1504755975.6,286046995.6,N
1504755995.5,286046993.7,N
1504756015.3,286046993.4,N
1504756035.1,286046988.7,N
1504756055.9,286046986.4,P
1504756075.7,286046995.6,N
1504756095.5,286046995.4,N
1504756115.4,286046994.3,N
1504756135.2,286046996.3,N
1504756155.0,286046995.1,N
1504756155.9,286046995.1,N
1504756175.7,286046992.2,N
1504756195.6,286046988.9,P
1504756215.4,286046997.0,N
1504756235.3,286047000.4,N
1504756255.1,286047002.5,N
1504756256.0,286047002.5,N
1504756275.8,286047002.2,N
1504756295.6,286047002.1,N
1504756315.5,286047000.1,N
1504756335.3,286047001.9,N
1504756355.1,286046999.9,N
1504756375.9,286047000.5,N
1504756395.7,286046996.5,N
1504756415.5,286046998.2,N
1504756435.4,286046996.3,N
1504756455.2,286046993.4,N
1504756475.0,286046999.0,N
1504756475.9,286046999.0,N
1504756495.8,286046998.1,N
1504756515.6,286046998.6,N
1504756535.4,286047000.2,N
1504756555.3,286046998.9,N
1504756575.1,286046995.6,N
1504756576.0,286046995.6,N
1504756595.8,286046997.6,N
1504756615.7,286046996.3,N
1504756635.5,286046997.1,N
1504756655.3,286047001.2,N
1504756675.1,286047007.4,N
1504756695.9,286047007.7,N
1504756715.7,286047012.7,P
1504756735.6,286047016.9,N
1504756755.4,286047018.5,N
1504756775.2,286047017.9,N
1504756795.0,286047019.6,N
1504756796.0,286047019.6,N
